TimeEDT,TemperatureF,Dew PointF,Humidity,Sea Level PressureIn,VisibilityMPH,Wind Direction,Wind SpeedMPH,Gust SpeedMPH,PrecipitationIn,Events,Conditions,WindDirDegrees,DateUTC
12:06 AM,71.6,64.4,78,30.05,3.0,Calm,Calm,-,0.09,Rain-Thunderstorm,Heavy Thunderstorms and Rain,0,2013-09-12 04:06:00
12:50 AM,68.0,68.0,100,30.04,6.0,South,3.5,-,0.09,Thunderstorm,Mostly Cloudy,170,2013-09-12 04:50:00
12:54 AM,69.1,68.0,96,30.00,6.0,Calm,Calm,-,0.09,Thunderstorm,Mostly Cloudy,0,2013-09-12 04:54:00
1:08 AM,66.2,66.2,100,30.03,2.5,Calm,Calm,-,N/A,,Partly Cloudy,0,2013-09-12 05:08:00
1:18 AM,66.2,66.2,100,30.03,5.0,Calm,Calm,-,N/A,,Clear,0,2013-09-12 05:18:00
1:40 AM,66.2,66.2,100,30.02,1.8,SSW,3.5,-,N/A,,Clear,200,2013-09-12 05:40:00
1:49 AM,66.2,66.2,100,30.02,3.0,SW,5.8,-,N/A,,Clear,230,2013-09-12 05:49:00
1:54 AM,68.0,68.0,100,29.99,3.0,SSW,5.8,-,N/A,,Clear,210,2013-09-12 05:54:00
2:10 AM,68.0,68.0,100,30.02,1.8,SSW,6.9,-,N/A,,Partly Cloudy,200,2013-09-12 06:10:00
2:13 AM,68.0,68.0,100,30.02,0.8,SSW,5.8,-,N/A,,Mist,210,2013-09-12 06:13:00
2:21 AM,66.2,66.2,100,30.01,0.5,SW,4.6,-,N/A,Fog,Fog,220,2013-09-12 06:21:00
2:41 AM,68.0,68.0,100,30.02,1.5,Calm,Calm,-,N/A,,Overcast,0,2013-09-12 06:41:00
2:54 AM,68.0,68.0,100,29.97,1.5,SW,3.5,-,N/A,,Overcast,220,2013-09-12 06:54:00
3:38 AM,68.0,68.0,100,30.00,2.5,SSW,3.5,-,N/A,,Overcast,200,2013-09-12 07:38:00
3:54 AM,68.0,68.0,100,29.96,2.5,SW,4.6,-,N/A,,Overcast,220,2013-09-12 07:54:00
4:17 AM,68.0,68.0,100,29.99,2.0,SW,3.5,-,N/A,,Mostly Cloudy,220,2013-09-12 08:17:00
4:37 AM,68.0,68.0,100,29.98,1.8,SSW,4.6,-,0.00,Rain,Light Rain,210,2013-09-12 08:37:00
4:47 AM,68.0,68.0,100,29.98,1.5,South,4.6,-,0.01,Rain,Light Rain,180,2013-09-12 08:47:00
4:52 AM,68.0,68.0,100,29.98,0.8,South,3.5,-,0.01,,Overcast,170,2013-09-12 08:52:00
4:54 AM,68.0,68.0,100,29.96,0.5,Calm,Calm,-,0.01,Fog,Fog,0,2013-09-12 08:54:00
4:56 AM,68.0,68.0,100,29.98,0.2,South,3.5,-,N/A,Fog,Fog,180,2013-09-12 08:56:00
5:11 AM,68.0,68.0,100,29.98,0.2,South,4.6,-,N/A,Fog,Fog,190,2013-09-12 09:11:00
5:21 AM,68.0,68.0,100,29.98,0.2,South,4.6,-,N/A,Fog,Fog,190,2013-09-12 09:21:00
5:35 AM,68.0,68.0,100,29.98,0.5,SW,4.6,-,N/A,Fog,Fog,230,2013-09-12 09:35:00
5:54 AM,68.0,68.0,100,29.95,1.0,SSW,5.8,-,N/A,,Overcast,200,2013-09-12 09:54:00
6:03 AM,68.0,68.0,100,29.98,1.5,SSW,6.9,-,N/A,,Overcast,200,2013-09-12 10:03:00
6:54 AM,68.0,68.0,100,29.95,1.8,SSW,4.6,-,N/A,,Overcast,210,2013-09-12 10:54:00
7:07 AM,68.0,68.0,100,29.97,1.8,SSW,4.6,-,N/A,,Overcast,210,2013-09-12 11:07:00
7:29 AM,68.0,68.0,100,29.97,0.5,Calm,Calm,-,N/A,Fog,Fog,0,2013-09-12 11:29:00
7:54 AM,69.1,69.1,100,29.95,1.0,SW,4.6,-,N/A,,Overcast,220,2013-09-12 11:54:00
8:29 AM,69.8,69.8,100,29.96,1.5,SSW,5.8,-,N/A,,Overcast,200,2013-09-12 12:29:00
8:39 AM,69.8,69.8,100,29.96,1.2,SSW,4.6,-,N/A,,Overcast,200,2013-09-12 12:39:00
8:47 AM,69.8,69.8,100,29.95,1.5,SW,5.8,-,N/A,,Overcast,220,2013-09-12 12:47:00
8:54 AM,70.0,70.0,100,29.93,1.8,SW,6.9,-,N/A,,Overcast,220,2013-09-12 12:54:00
9:10 AM,71.6,71.6,100,29.95,2.0,SSW,5.8,-,N/A,,Overcast,210,2013-09-12 13:10:00
9:24 AM,71.6,71.6,100,29.94,2.5,SSW,9.2,-,N/A,,Overcast,210,2013-09-12 13:24:00
9:40 AM,71.6,71.6,100,29.94,3.0,SSW,10.4,-,N/A,,Overcast,210,2013-09-12 13:40:00
9:54 AM,72.0,71.1,97,29.91,3.0,SW,6.9,-,N/A,,Overcast,220,2013-09-12 13:54:00
10:21 AM,73.4,69.8,88,29.94,4.0,WSW,8.1,-,N/A,,Overcast,240,2013-09-12 14:21:00
10:54 AM,73.9,71.1,91,29.91,4.0,SW,4.6,-,N/A,,Overcast,230,2013-09-12 14:54:00
11:54 AM,75.0,71.1,87,29.90,5.0,SSW,5.8,-,N/A,,Overcast,200,2013-09-12 15:54:00
12:54 PM,78.1,69.1,74,29.86,7.0,SW,10.4,18.4,N/A,,Mostly Cloudy,230,2013-09-12 16:54:00
1:01 PM,78.8,69.8,74,29.89,7.0,SW,11.5,-,N/A,,Scattered Clouds,220,2013-09-12 17:01:00
1:31 PM,73.4,69.8,88,29.89,5.0,SSW,12.7,20.7,0.00,Rain-Thunderstorm,Light Rain,210,2013-09-12 17:31:00
1:40 PM,71.6,68.0,88,29.90,2.5,WSW,16.1,35.7,0.04,Rain-Thunderstorm,Light Thunderstorms and Rain,240,2013-09-12 17:40:00
1:43 PM,69.8,66.2,88,29.89,1.5,WSW,11.5,35.7,0.08,Rain-Thunderstorm,Heavy Thunderstorms and Rain,250,2013-09-12 17:43:00
1:51 PM,69.8,66.2,88,29.90,3.0,WSW,13.8,21.9,0.09,Rain-Thunderstorm,Thunderstorms and Rain,250,2013-09-12 17:51:00
1:54 PM,68.0,64.9,90,29.88,5.0,WSW,10.4,21.9,0.10,Rain-Thunderstorm,Light Thunderstorms and Rain,250,2013-09-12 17:54:00
2:32 PM,64.4,64.4,100,29.89,5.0,SW,8.1,-,0.10,Rain-Thunderstorm,Rain,220,2013-09-12 18:32:00
2:36 PM,64.4,64.4,100,29.89,6.0,SW,8.1,-,0.10,Rain,Light Rain,220,2013-09-12 18:36:00
2:54 PM,66.0,66.0,100,29.85,10.0,SW,9.2,-,0.11,,Mostly Cloudy,230,2013-09-12 18:54:00
3:21 PM,68.0,66.2,94,29.85,10.0,SW,8.1,-,N/A,,Scattered Clouds,230,2013-09-12 19:21:00
3:54 PM,70.0,66.0,87,29.81,10.0,West,10.4,19.6,N/A,,Mostly Cloudy,260,2013-09-12 19:54:00
4:14 PM,71.6,66.2,83,29.83,10.0,SW,10.4,-,N/A,,Scattered Clouds,230,2013-09-12 20:14:00
4:41 PM,69.8,64.4,83,29.83,10.0,WSW,8.1,-,N/A,,Mostly Cloudy,250,2013-09-12 20:41:00
4:54 PM,68.0,64.9,90,29.80,6.0,West,10.4,19.6,0.00,Rain,Light Rain,260,2013-09-12 20:54:00
5:14 PM,66.2,66.2,100,29.81,10.0,SW,5.8,-,0.00,,Overcast,230,2013-09-12 21:14:00
5:54 PM,68.0,64.9,90,29.79,10.0,WSW,5.8,-,0.00,,Mostly Cloudy,240,2013-09-12 21:54:00
6:01 PM,68.0,64.4,88,29.81,10.0,WSW,3.5,-,N/A,,Mostly Cloudy,240,2013-09-12 22:01:00
6:12 PM,68.0,64.4,88,29.81,10.0,SSW,4.6,-,N/A,,Mostly Cloudy,210,2013-09-12 22:12:00
6:37 PM,68.0,64.4,88,29.83,10.0,SW,4.6,-,N/A,,Mostly Cloudy,230,2013-09-12 22:37:00
6:50 PM,68.0,64.4,88,29.83,10.0,SSW,3.5,-,N/A,,Scattered Clouds,210,2013-09-12 22:50:00
6:54 PM,68.0,64.9,90,29.81,10.0,SW,3.5,-,N/A,,Partly Cloudy,230,2013-09-12 22:54:00
7:54 PM,66.9,64.9,93,29.80,10.0,SSW,4.6,-,N/A,,Partly Cloudy,210,2013-09-12 23:54:00
8:54 PM,66.9,64.9,93,29.81,10.0,SW,5.8,-,0.00,Rain,Light Rain,230,2013-09-13 00:54:00
9:05 PM,66.2,64.4,94,29.83,10.0,WSW,3.5,-,0.00,Rain,Light Rain,240,2013-09-13 01:05:00
9:14 PM,66.2,64.4,94,29.83,10.0,NW,10.4,-,0.00,Rain,Light Rain,310,2013-09-13 01:14:00
9:26 PM,66.2,60.8,83,29.83,10.0,NW,13.8,-,0.00,,Overcast,320,2013-09-13 01:26:00
9:54 PM,64.0,60.1,87,29.80,10.0,NNW,6.9,-,0.00,,Mostly Cloudy,340,2013-09-13 01:54:00
10:54 PM,63.0,57.9,84,29.81,10.0,Calm,Calm,-,N/A,,Scattered Clouds,0,2013-09-13 02:54:00
11:54 PM,60.1,57.9,93,29.80,10.0,WNW,3.5,-,N/A,,Clear,300,2013-09-13 03:54:00